| time (UTC) | temp C | wind direction | speed KPH | gust KPH | rain 1hr cm | rain 24hr cm | rain mn cm | humidity % | barometer mb |
| 20260506131557 | -17 | 0.0 | 0.0 | 0.00 | 0.00 | 0.00 | 1014.4 | ||
| 20260506130049 | -17 | 0.0 | 0.0 | 0.00 | 0.00 | 0.00 | 1014.3 | ||
| 20260506124547 | -17 | 0.0 | 0.0 | 0.00 | 0.00 | 0.00 | 1014.3 | ||
| 20260506123051 | -17 | 0.0 | 0.0 | 0.00 | 0.00 | 0.00 | 1014.4 | ||
| 20260506121542 | -17 | 0.0 | 0.0 | 0.00 | 0.00 | 0.00 | 1014.4 | ||
| 20260506120052 | -17 | 0.0 | 0.0 | 0.00 | 0.00 | 0.00 | 1014.1 | ||
| 20260506114552 | -17 | 0.0 | 0.0 | 0.00 | 0.00 | 0.00 | 1014.0 | ||
| 20260506113045 | -17 | 0.0 | 0.0 | 0.00 | 0.00 | 0.00 | 1014.1 | ||
| 20260506111547 | 7 | 0.0 | 0.0 | 0.00 | 0.00 | 0.00 | 92 | 1014.1 | |
| 20260506110042 | 7 | 0 | 0.0 | 0.0 | 0.00 | 0.00 | 0.00 | 93 | 1013.9 |
| 20260506104551 | 7 | 0 | 0.0 | 0.0 | 0.00 | 0.00 | 0.00 | 93 | 1013.7 |
| 20260506103052 | 7 | 0 | 0.0 | 0.0 | 0.00 | 0.00 | 0.00 | 92 | 1013.6 |
| 20260506101550 | 8 | 0 | 0.0 | 0.0 | 0.00 | 0.00 | 0.00 | 93 | 1013.5 |
| 20260506100100 | 8 | 0 | 0.0 | 0.0 | 0.00 | 0.00 | 0.00 | 92 | 1013.5 |
| 20260506094552 | 8 | 0 | 0.0 | 0.0 | 0.00 | 0.00 | 0.00 | 92 | 1013.4 |
| 20260506093045 | 8 | 0 | 0.0 | 0.0 | 0.00 | 0.00 | 0.00 | 92 | 1013.1 |
| 20260506091545 | 8 | 0 | 0.0 | 0.0 | 0.00 | 0.00 | 0.00 | 92 | 1013.0 |
| 20260506090044 | 8 | 0 | 0.0 | 0.0 | 0.00 | 0.00 | 0.00 | 92 | 1012.9 |
| 20260506084546 | 8 | 0 | 0.0 | 0.0 | 0.00 | 0.00 | 0.00 | 92 | 1012.9 |
| 20260506083042 | 8 | 0 | 0.0 | 0.0 | 0.00 | 0.00 | 0.00 | 91 | 1012.7 |
| 20260506081543 | 8 | 0 | 0.0 | 0.0 | 0.00 | 0.00 | 0.00 | 91 | 1012.6 |
| 20260506073045 | 9 | 0 | 0.0 | 0.0 | 0.00 | 0.00 | 0.00 | 91 | 1012.3 |
| 20260506071552 | 10 | 0 | 0.0 | 0.0 | 0.00 | 0.00 | 0.00 | 91 | 1012.2 |
| 20260506061546 | 10 | 0 | 0.0 | 0.0 | 0.00 | 0.00 | 0.00 | 90 | 1011.9 |
| 20260506044547 | 12 | 0 | 0.0 | 0.0 | 0.00 | 0.00 | 0.00 | 85 | 1011.4 |
| 20260506043046 | 13 | 0 | 0.0 | 0.0 | 0.00 | 0.00 | 0.00 | 83 | 1011.3 |
| 20260506041550 | 15 | 0 | 0.0 | 0.0 | 0.00 | 0.00 | 0.00 | 78 | 1011.2 |
| 20260506040055 | 15 | 0 | 0.0 | 0.0 | 0.00 | 0.00 | 0.00 | 77 | 1011.1 |
| 20260506034549 | 16 | 0 | 0.0 | 0.0 | 0.00 | 0.00 | 0.00 | 76 | 1010.9 |
| 20260506033042 | 16 | 0 | 0.0 | 0.0 | 0.00 | 0.00 | 0.00 | 75 | 1010.7 |
| 20260506031546 | 17 | 0 | 0.0 | 0.0 | 0.00 | 0.00 | 0.00 | 73 | 1010.4 |
| 20260506030100 | 17 | 0 | 0.0 | 0.0 | 0.00 | 0.00 | 0.00 | 71 | 1010.3 |
| 20260506024555 | 18 | 0 | 0.0 | 0.0 | 0.00 | 0.00 | 0.00 | 70 | 1010.3 |
| 20260506023052 | 18 | 0 | 0.0 | 0.0 | 0.00 | 0.00 | 0.00 | 69 | 1010.2 |
| 20260506021558 | 19 | 0 | 0.0 | 8.0 | 0.00 | 0.00 | 0.00 | 68 | 1010.3 |
| 20260506020048 | 20 | 0 | 1.6 | 8.0 | 0.00 | 0.00 | 0.00 | 67 | 1010.2 |
| 20260506014556 | 20 | 36 | 0.0 | 12.9 | 0.00 | 0.00 | 0.00 | 65 | 1010.1 |
| 20260506013054 | 21 | 0 | 0.0 | 4.8 | 0.00 | 0.00 | 0.00 | 63 | 1010.2 |
| 20260506011544 | 22 | 96 | 0.0 | 6.4 | 0.00 | 0.00 | 0.00 | 61 | 1010.2 |
| 20260506010053 | 22 | 0 | 0.0 | 4.8 | 0.00 | 0.00 | 0.00 | 60 | 1010.2 |
| 20260506004550 | 22 | 55 | 0.0 | 8.0 | 0.00 | 0.00 | 0.00 | 59 | 1010.2 |
| 20260506003045 | 22 | 69 | 1.6 | 9.7 | 0.00 | 0.00 | 0.00 | 60 | 1010.4 |
| 20260506001546 | 22 | 98 | 3.2 | 11.3 | 0.00 | 0.00 | 0.00 | 61 | 1010.7 |
| 20260506000047 | 22 | 16 | 1.6 | 9.7 | 0.00 | 0.00 | 0.00 | 60 | 1010.8 |
| 20260505234547 | 22 | 82 | 0.0 | 9.7 | 0.00 | 0.00 | 0.00 | 60 | 1010.9 |
| 20260505233057 | 23 | 75 | 0.0 | 14.5 | 0.00 | 0.00 | 0.00 | 59 | 1010.9 |
| 20260505231549 | 22 | 0 | 3.2 | 8.0 | 0.00 | 0.00 | 0.00 | 59 | 1011.1 |
| 20260505230051 | 22 | 0 | 1.6 | 9.7 | 0.00 | 0.00 | 0.00 | 59 | 1011.1 |
| 20260505224549 | 23 | 0 | 1.6 | 9.7 | 0.00 | 0.00 | 0.00 | 59 | 1011.3 |
| 20260505223050 | 22 | 32 | 3.2 | 14.5 | 0.00 | 0.00 | 0.00 | 60 | 1011.4 |
| 20260505221555 | 22 | 83 | 0.0 | 12.9 | 0.00 | 0.00 | 0.00 | 61 | 1011.5 |
| 20260505220057 | 22 | 49 | 3.2 | 8.0 | 0.00 | 0.00 | 0.00 | 60 | 1011.6 |
| 20260505214544 | 22 | 0 | 1.6 | 14.5 | 0.00 | 0.00 | 0.00 | 61 | 1011.7 |
| 20260505213051 | 22 | 43 | 1.6 | 11.3 | 0.00 | 0.00 | 0.00 | 60 | 1011.8 |
| 20260505211546 | 22 | 331 | 3.2 | 12.9 | 0.00 | 0.00 | 0.00 | 61 | 1011.8 |
| 20260505210045 | 22 | 306 | 1.6 | 11.3 | 0.00 | 0.00 | 0.00 | 60 | 1012.0 |
| 20260505204545 | 21 | 105 | 1.6 | 9.7 | 0.00 | 0.00 | 0.00 | 63 | 1012.0 |
| 20260505203050 | 21 | 118 | 1.6 | 12.9 | 0.00 | 0.00 | 0.00 | 63 | 1012.1 |
| 20260505201543 | 21 | 78 | 3.2 | 14.5 | 0.00 | 0.00 | 0.00 | 62 | 1012.1 |
| 20260505200048 | 21 | 125 | 4.8 | 16.1 | 0.00 | 0.00 | 0.00 | 62 | 1012.1 |
| 20260505194552 | 21 | 101 | 3.2 | 9.7 | 0.00 | 0.00 | 0.00 | 63 | 1012.1 |
| 20260505193102 | 20 | 0 | 3.2 | 11.3 | 0.00 | 0.00 | 0.00 | 63 | 1012.0 |
| 20260505191544 | 20 | 42 | 1.6 | 8.0 | 0.00 | 0.00 | 0.00 | 63 | 1012.0 |
| 20260505190053 | 20 | 194 | 3.2 | 11.3 | 0.00 | 0.00 | 0.00 | 64 | 1012.1 |
| 20260505184552 | 20 | 85 | 4.8 | 14.5 | 0.00 | 0.00 | 0.00 | 64 | 1012.1 |
| 20260505183047 | 19 | 89 | 3.2 | 8.0 | 0.00 | 0.00 | 0.00 | 65 | 1012.0 |
| 20260505181544 | 19 | 36 | 8.0 | 14.5 | 0.00 | 0.00 | 0.00 | 65 | 1012.1 |
| 20260505180053 | 19 | 63 | 0.0 | 9.7 | 0.00 | 0.00 | 0.00 | 67 | 1012.0 |
| 20260505174546 | 18 | 311 | 0.0 | 9.7 | 0.00 | 0.00 | 0.00 | 70 | 1012.1 |
| 20260505173046 | 18 | 0 | 3.2 | 11.3 | 0.00 | 0.00 | 0.00 | 71 | 1012.0 |
| 20260505171549 | 17 | 111 | 1.6 | 9.7 | 0.00 | 0.00 | 0.00 | 73 | 1012.1 |
| 20260505170046 | 17 | 178 | 4.8 | 14.5 | 0.00 | 0.00 | 0.00 | 75 | 1012.1 |
| 20260505164546 | 16 | 105 | 1.6 | 9.7 | 0.00 | 0.00 | 0.00 | 78 | 1012.0 |
| 20260505163048 | 15 | 43 | 0.0 | 9.7 | 0.00 | 0.00 | 0.00 | 80 | 1011.9 |
| 20260505161547 | 15 | 0 | 0.0 | 11.3 | 0.00 | 0.00 | 0.00 | 83 | 1011.9 |
| 20260505153048 | 13 | 111 | 0.0 | 4.8 | 0.00 | 0.00 | 0.00 | 87 | 1011.7 |
| 20260505151542 | 13 | 0 | 0.0 | 4.8 | 0.00 | 0.00 | 0.00 | 88 | 1011.6 |